STARLINK-34819, 65040

Orbit data source: Space-Track

STARLINK-34819, 65040 is a payload satellite owned by SpaceX/Seattle (US) in LEO that was launched on Wed, 30 Jul 2025 UTC via an FALCON 9 launch vehicle from the Air Force Eastern Test Range (AFETR). Payload-class satellites include a variety of spacecraft equipped with specific instruments for various scientific and technological missions. These include communications satellites like Starlink; space stations such as the ISS; scientific satellites like the Hubble; Earth observation satellites from companies like Planet Labs, Umbra, and HawkEye 360; GPS; miniature CubeSats for education and research; and military/defense satellites.

Loading next visibility...
Identifier
65040, 2025-161AB
Orbit
LEO
Country
Flag of USUS
Related business
Manufacturer
SpaceX/Seattle
Mission
Operational Commercial Communications
Bus & Motor
STARLINK V2MO, Unknown motor
Mass
575 kg wet, ~530 kg dry
Launch date (UTC)
2025-07-30 (4 months ago)
Launch vehicle
FALCON 9
Launch site
Air Force Eastern Test Range (AFETR)
Object type
Payload
Rocket body
Debris
Shape & HBR
Box + 2 Pan, 17.7 m
Radar Cross Section
36.964 m², Large (>1 m²)

Expand to show TLE details & history
Last TLE update: 15 hours ago

TLE from 15 hours ago
0 STARLINK-34819
1 65040U 25161AB  25342.43772032  .00033999  00000-0  11550-2 0  9991
2 65040  53.1605 358.4198 0001311  57.3692 302.7435 15.30195590 20254
Epoch: 2025-12-08T10:30Z
TLE epoch observation values (Epoch: 2025-12-08T10:30:19.035Z)
Latitude
-0.00004°
Longitude
123.40369°
Altitude
475.642 km
Speed
7.629 km/s
True Right ascension
23h 53m 40s
True Declination
0° 00' 00"
Sunlit
Object was in daylight at epoch
Visualization orbit readout
Latitude
Unknown
Longitude
Unknown
Altitude
Unknown
Speed
Unknown
Apparent Right ascension
Unknown
Apparent Declination
Unknown
Sunlit
N/A
Visualization observer readout
Local Sidereal Time
23:18:14
Azimuth
Unknown
Elevation
Unknown
Doppler factor
Unknown
Orbital elements
Apogee altitude
476.383 km
Perigee altitude
474.586 km
Semi-major axis
6,853.622 km
Eccentricity
0.00013
Inclination
53.1605°
RAAN
358.4198°
Arg. of periapsis
57.3692°
True anomaly
302.73086°
Mean anomaly
302.7435°
Eccentric anomaly
302.73718°
Mean motion
3.82528 °/min
Orbital period
94.11 mins
BSTAR
0.001155
Loading maneuver chart data...
Computing Atmospheric mass density...
Loading historical data...
Loading historical data...
Loading historical data...
Loading historical data...
Loading historical data...
Loading historical data...
Loading historical data...

Documentation

Showing up to 5 results
|